KI5NYZ-13 Weather Reports


time (UTC)temp
C
wind
direction
speed
KPH
gust
KPH
rain 1hr
cm
rain 24hr
cm
rain mn
cm
humidity
%
barometer
mb
20220524021417 20 145 3.2 12.9 0.00 0.18 0.18 69 1005.9
20220524020416 21 126 3.2 12.9 0.00 0.18 0.18 65 1005.3
20220524015415 21 180 4.8 16.1 0.00 0.18 0.18 63 1004.9
20220524014414 21 176 4.8 14.5 0.00 0.18 0.18 61 1004.7
20220524013413 21 151 4.8 16.1 0.00 0.15 0.15 59 1004.5
20220524012412 21 131 4.8 17.7 0.00 0.15 0.15 56 1004.6
20220524011411 21 142 4.8 16.1 0.00 0.15 0.15 59 1004.8
20220524010410 21 128 4.8 14.5 0.00 0.15 0.15 59 1004.7
20220524005409 22 127 6.4 19.3 0.00 0.15 0.15 56 1004.3
20220524004408 23 126 6.4 20.9 0.00 0.15 0.15 62 1003.8
20220524003407 25 122 8.0 19.3 0.00 0.15 0.15 56 1002.7
20220524002406 26 124 6.4 12.9 0.03 0.15 0.15 53 1002.3
20220524001405 27 115 6.4 6.4 0.05 0.15 0.15 50 1002.1
20220524000404 27 128 4.8 6.4 0.05 0.15 0.15 43 1002.2
20220523235403 27 122 8.0 8.0 0.05 0.15 0.15 45 1002.4
20220523234402 27 122 4.8 4.8 0.03 0.13 0.13 47 1002.6
20220523233401 27 140 6.4 6.4 0.00 0.10 0.10 47 1002.7
20220523232400 27 125 4.8 4.8 0.00 0.08 0.08 48 1003.0
20220523231359 26 110 4.8 4.8 0.00 0.08 0.08 50 1003.5
20220523230358 25 128 4.8 4.8 0.00 0.08 0.08 55 1004.1
20220523225357 25 110 4.8 4.8 0.00 0.08 0.08 57 1004.3
20220523224356 24 112 4.8 6.4 0.00 0.08 0.08 61 1004.7
20220523223355 23 115 6.4 6.4 0.00 0.08 0.08 64 1005.0
20220523222354 23 118 6.4 9.7 0.00 0.08 0.08 64 1005.1
20220523221353 24 118 6.4 6.4 0.03 0.08 0.08 63 1004.9
20220523220352 25 118 6.4 6.4 0.03 0.08 0.08 60 1004.6
20220523215351 26 110 3.2 4.8 0.03 0.08 0.08 52 1004.4
20220523214350 26 170 6.4 6.4 0.00 0.05 0.05 49 1004.5
20220523213349 27 160 4.8 4.8 0.05 0.05 0.05 46 1004.6
20220523212348 27 179 8.0 8.0 0.03 0.05 0.05 46 1004.7
20220523211347 26 161 3.2 4.8 0.05 0.05 0.05 47 1005.0
20220523210346 26 123 4.8 4.8 0.03 0.05 0.05 49 1005.5
20220523205345 26 156 4.8 4.8 0.03 0.05 0.05 51 1005.9
20220523204344 26 146 6.4 6.4 0.00 0.03 0.03 50 1005.8
20220523203343 27 160 4.8 4.8 0.00 0.00 0.00 48 1005.9
20220523202342 27 169 4.8 4.8 0.00 0.00 0.00 48 1006.1
20220523201341 27 146 3.2 4.8 0.00 0.00 0.00 46 1006.2
20220523200340 27 160 6.4 6.4 0.00 0.00 0.00 48 1006.7
20220523195339 26 171 4.8 4.8 0.00 0.00 0.00 48 1007.1
20220523194338 26 180 4.8 4.8 0.00 0.00 0.00 48 1007.4
20220523193337 26 173 6.4 6.4 0.00 0.00 0.00 50 1007.9
20220523192336 24 180 6.4 6.4 0.00 0.00 0.00 54 1008.8
20220523191335 24 167 4.8 4.8 0.00 0.00 0.00 54 1009.0
20220523190334 24 169 4.8 6.4 0.00 0.00 0.00 54 1009.2
20220523185333 23 162 6.4 6.4 0.00 0.00 0.00 55 1009.6
20220523184332 23 140 4.8 4.8 0.00 0.00 0.00 57 1010.1
20220523183331 23 171 4.8 4.8 0.00 0.00 0.00 56 1010.1
20220523182330 23 167 4.8 6.4 0.00 0.00 0.00 56 1010.3
20220523181329 23 168 4.8 4.8 0.00 0.00 0.00 55 1010.7
20220523180328 22 158 4.8 4.8 0.00 0.00 0.00 57 1010.9
20220523175327 22 172 3.2 4.8 0.00 0.00 0.00 56 1011.3
20220523174326 21 141 4.8 4.8 0.00 0.00 0.00 61 1012.1
20220523173325 21 155 3.2 4.8 0.00 0.00 0.00 61 1012.3
20220523172324 20 160 4.8 4.8 0.00 0.00 0.00 62 1012.5
20220523171323 20 158 4.8 4.8 0.00 0.00 0.00 62 1012.5
20220523170322 20 156 4.8 4.8 0.00 0.00 0.00 62 1012.7
20220523165321 19 122 3.2 4.8 0.00 0.00 0.00 63 1013.0
20220523164320 18 136 3.2 3.2 0.00 0.00 0.00 65 1013.6
20220523163319 18 120 3.2 3.2 0.00 0.00 0.00 66 1013.9
20220523162318 18 117 3.2 3.2 0.00 0.00 0.00 68 1014.4
20220523161317 17 117 8.0 8.0 0.00 0.00 0.00 69 1014.7
20220523160316 17 116 6.4 11.3 0.00 0.00 0.00 70 1014.8
20220523155315 17 119 8.0 8.0 0.00 0.00 0.00 70 1014.8
20220523154314 17 119 8.0 9.7 0.00 0.00 0.00 70 1014.9
20220523153313 16 116 12.9 12.9 0.00 0.00 0.00 71 1014.9
20220523152312 16 112 9.7 9.7 0.00 0.00 0.00 70 1015.0
20220523151311 16 112 9.7 11.3 0.00 0.00 0.00 73 1015.3
20220523150310 16 113 8.0 11.3 0.00 0.00 0.00 73 1015.3
20220523145309 16 111 12.9 12.9 0.00 0.00 0.00 74 1015.1
20220523144308 16 111 12.9 14.5 0.00 0.00 0.00 73 1015.2
20220523143307 15 113 12.9 12.9 0.00 0.00 0.00 74 1015.2
20220523142306 15 114 11.3 14.5 0.00 0.00 0.00 74 1015.4
20220523141305 15 112 9.7 12.9 0.00 0.00 0.00 74 1015.6
20220523140304 15 108 11.3 11.3 0.00 0.00 0.00 75 1015.8
20220523135303 15 107 11.3 11.3 0.00 0.00 0.00 75 1016.0
20220523134302 15 104 9.7 9.7 0.00 0.00 0.00 74 1016.1
20220523133301 15 105 9.7 11.3 0.00 0.00 0.00 74 1015.9
20220523132300 15 103 8.0 8.0 0.00 0.00 0.00 73 1016.0
20220523131259 15 104 8.0 8.0 0.00 0.00 0.00 73 1015.9
20220523130258 15 102 4.8 6.4 0.00 0.00 0.00 73 1016.1
20220523125257 15 105 4.8 4.8 0.00 0.00 0.00 73 1016.1
20220523124256 15 109 6.4 6.4 0.00 0.00 0.00 73 1016.1
20220523123255 15 111 8.0 8.0 0.00 0.00 0.00 72 1016.0
20220523122254 15 112 8.0 8.0 0.00 0.00 0.00 72 1016.1
20220523121253 14 104 6.4 6.4 0.00 0.00 0.00 71 1016.1
20220523120252 14 104 4.8 4.8 0.00 0.00 0.00 70 1016.0
20220523115251 14 112 8.0 8.0 0.00 0.00 0.00 69 1016.1
20220523114250 14 110 6.4 6.4 0.00 0.00 0.00 69 1016.3
20220523113249 14 114 9.7 9.7 0.00 0.00 0.00 68 1016.0
20220523112248 15 111 8.0 8.0 0.00 0.00 0.00 67 1015.9
20220523111247 15 108 8.0 9.7 0.00 0.00 0.00 65 1015.9
20220523110246 15 106 6.4 6.4 0.00 0.00 0.00 64 1016.2
20220523105245 15 111 8.0 12.9 0.00 0.00 0.00 62 1016.2
20220523104244 15 107 8.0 9.7 0.00 0.00 0.00 59 1016.3
20220523103243 15 111 11.3 11.3 0.00 0.00 0.00 59 1016.3
20220523102242 15 113 9.7 9.7 0.00 0.00 0.00 58 1016.4
20220523101241 15 110 9.7 11.3 0.00 0.00 0.00 57 1016.3
20220523100240 15 112 11.3 12.9 0.00 0.00 0.00 56 1016.5
20220523095239 15 110 9.7 9.7 0.00 0.00 0.00 55 1016.3
20220523094238 15 100 8.0 9.7 0.00 0.00 0.00 52 1016.4
20220523093237 15 103 6.4 6.4 0.00 0.00 0.00 50 1016.5
20220523092236 16 104 8.0 8.0 0.00 0.00 0.00 49 1016.3
20220523091235 16 106 8.0 8.0 0.00 0.00 0.00 49 1016.0
20220523090234 16 100 8.0 8.0 0.00 0.00 0.00 48 1016.0
20220523085233 16 104 8.0 8.0 0.00 0.00 0.00 47 1016.0
20220523084232 16 93 6.4 8.0 0.00 0.00 0.00 48 1016.0
20220523083231 16 104 9.7 9.7 0.00 0.00 0.00 47 1016.0
20220523082230 16 94 6.4 6.4 0.00 0.00 0.00 46 1016.0
20220523081229 16 96 6.4 8.0 0.00 0.00 0.00 45 1016.0
20220523080228 16 105 6.4 6.4 0.00 0.00 0.00 44 1016.2
20220523075227 16 101 6.4 6.4 0.00 0.00 0.00 43 1016.3
20220523074226 16 101 6.4 6.4 0.00 0.00 0.00 43 1016.5
20220523073225 16 105 4.8 4.8 0.00 0.00 0.00 43 1016.7
20220523072224 15 108 4.8 4.8 0.00 0.00 0.00 43 1016.9
20220523071223 15 109 3.2 3.2 0.00 0.00 0.00 43 1016.9
20220523070222 15 101 3.2 3.2 0.00 0.00 0.00 43 1016.9
20220523065221 16 110 4.8 4.8 0.00 0.00 0.00 42 1016.8
20220523064220 16 105 3.2 3.2 0.00 0.00 0.00 42 1016.9
20220523063219 16 107 3.2 3.2 0.00 0.00 0.00 42 1016.9
20220523062218 16 107 3.2 3.2 0.00 0.00 0.00 42 1016.8
20220523061217 16 107 4.8 4.8 0.00 0.00 0.00 41 1016.7
20220523060216 17 107 3.2 3.2 0.00 0.00 0.00 41 1016.6
20220523055215 17 110 3.2 3.2 0.00 0.00 0.00 40 1016.7
20220523054214 17 110 3.2 3.2 0.00 0.00 0.00 41 1016.7
20220523053213 17 110 3.2 3.2 0.00 0.00 0.00 42 1016.8
20220523052212 17 114 4.8 4.8 0.00 0.00 0.00 42 1017.0
20220523051211 17 116 3.2 3.2 0.00 0.00 0.00 42 1017.1
20220523050210 17 117 4.8 4.8 0.00 0.00 0.00 42 1017.2
20220523045209 17 116 3.2 3.2 0.00 0.00 0.00 42 1017.4
20220523044208 17 118 3.2 3.2 0.00 0.00 0.00 43 1017.4
20220523043207 17 121 3.2 3.2 0.00 0.00 0.00 43 1017.5
20220523042206 17 124 1.6 1.6 0.00 0.00 0.00 42 1017.4
20220523041205 17 116 1.6 3.2 0.00 0.00 0.00 41 1016.9
20220523040204 18 121 1.6 1.6 0.00 0.00 0.00 40 1016.9
20220523035203 18 116 1.6 1.6 0.00 0.00 0.00 40 1016.7
20220523034202 18 124 1.6 4.8 0.00 0.00 0.00 39 1016.5
20220523033201 18 114 1.6 4.8 0.00 0.00 0.00 39 1016.7
20220523032200 18 128 1.6 3.2 0.00 0.00 0.00 38 1016.6
20220523031159 18 138 0.0 1.6 0.00 0.00 0.00 38 1016.5
20220523030158 19 125 1.6 4.8 0.00 0.00 0.00 37 1016.4
20220523025157 19 110 1.6 4.8 0.00 0.00 0.00 37 1016.3
20220523024156 19 107 1.6 4.8 0.00 0.00 0.00 37 1016.3
20220523023155 20 114 0.0 3.2 0.00 0.00 0.00 37 1016.3